Flag for Norfolk Island Weather past 2 weeks in Kingston, Norfolk Island

Now
73 °F

Partly cloudy.


Feels Like: 70 °F
Forecast: 72 / 79 °F
Wind: 25 mph from East

Location: Norfolk Island Airport

Current Time: Mar 1, 2015 at 8:38:19 PM

Latest Report: Mar 1, 2015 at 7:30 PM


Visibility: N/A

Pressure: 29.80 "Hg

Humidity: 94%

Dew point: 72 °F

Location of KingstonLocation

Historic Weather in Kingston — Graph

°F

Kingston temperature yesterday

Maximum temperature yesterday: 73 °F (at 10:30 AM)
Minimum temperature yesterday: 70 °F (at 12:00 AM)
Average temperature yesterday: 72 °F

Past Weeks' High & Low Weather Summary

 TemperatureHumidityPressure
High77 °F (Feb 15, 1:30 PM)100% (Feb 18, 8:15 AM)30.12 "Hg (Feb 18, 8:15 AM)
Low66 °F (Feb 25, 4:00 AM)50% (Feb 20, 4:00 PM)29.74 "Hg (Feb 26, 3:30 PM)
Average71 °F79%29.97 "Hg
* Reported Feb 14 7:30 PM — Mar 1 7:30 PM, Kingston, Weather by CustomWeather, © 2015

Note: Actual official high and low records may vary slightly from our data, if they occured in-between our weather recording intervals... More about our weather records

Advertising

Kingston weather history for previous 24 hours

 ConditionsComfort  
Time TempWeatherWind HumidityBarometerVisibility
7:30 PM
Sun, Mar 1
73 °FPartly cloudy.25 mph94%29.80 "HgN/A
7:00 PM73 °FLow clouds.21 mph94%29.80 "Hg4 mi
6:30 PM73 °FMostly cloudy.20 mph94%29.80 "Hg5 mi
5:30 PM73 °FPartly sunny.14 mph94%29.80 "HgN/A
5:00 PM73 °FPartly sunny.12 mph89%29.83 "HgN/A
4:30 PM73 °FPartly sunny.10 mph94%29.83 "HgN/A
4:00 PM73 °FMore clouds than sun.12 mph89%29.83 "HgN/A
3:30 PM73 °FOvercast.10 mph89%29.86 "HgN/A
2:30 PM73 °FBroken clouds.14 mph89%29.86 "HgN/A
2:00 PM73 °FBroken clouds.16 mph89%29.86 "HgN/A
1:30 PM75 °FMostly cloudy.13 mph89%29.86 "HgN/A
12:30 PM73 °FMostly cloudy.10 mph89%29.86 "HgN/A
11:30 AM75 °FBroken clouds.13 mph83%29.89 "HgN/A
11:00 AM75 °FPartly sunny.13 mph83%29.89 "HgN/A
10:30 AM73 °FPartly sunny.12 mph89%29.89 "HgN/A
10:00 AM73 °FPartly sunny.12 mph94%29.89 "HgN/A
9:30 AM73 °FPartly sunny.14 mph94%29.89 "HgN/A
8:30 AM73 °FScattered clouds.10 mph89%29.89 "HgN/A
8:00 AM73 °FBroken clouds.12 mph94%29.89 "HgN/A
7:30 AM72 °FPartly sunny.12 mph94%29.89 "HgN/A
7:00 AM72 °FSunny.10 mph94%29.89 "HgN/A
6:30 AM72 °FScattered clouds.13 mph94%29.86 "HgN/A
5:30 AM72 °FOvercast.15 mph94%29.86 "HgN/A
5:00 AM72 °FOvercast.10 mph94%29.86 "HgN/A
4:30 AM72 °FPassing clouds.9 mph94%29.86 "HgN/A
3:30 AM72 °FPartly cloudy.12 mph94%29.86 "Hg5 mi
2:30 AM72 °FOvercast.14 mph100%29.86 "Hg6 mi
2:00 AM72 °FLow clouds.14 mph94%29.86 "Hg5 mi
1:30 AM72 °FMostly cloudy.15 mph94%29.89 "Hg2 mi
12:30 AM72 °FLow clouds.17 mph100%29.89 "Hg2 mi
11:35 PM
Sat, Feb 28
72 °FMostly cloudy.17 mph94%29.89 "HgN/A
11:30 PM72 °FPartly cloudy.16 mph94%29.89 "Hg4 mi
10:30 PM72 °FDrizzle. Low clouds.17 mph94%29.89 "Hg1 mi
9:30 PM72 °FLow clouds.16 mph94%29.89 "Hg6 mi
9:00 PM72 °FFog.17 mph94%29.89 "Hg3 mi
8:30 PM72 °FMostly cloudy.17 mph94%29.89 "Hg4 mi
8:00 PM72 °FDrizzle. Low clouds.18 mph94%29.86 "Hg2 mi
Weather by CustomWeather, © 2015

See weather overviewHow to use our weather pages